Regional Weather Roundup
Issued by NWS Midland/Odessa, TX

Skip options and go directly to product.
Home | Oldest Version | Previous Version | Current Version | All | Text Only | Save Text | Print | Product List | Glossary Off

Skip product version selection by date and time.   

029
ASUS44 KMAF 032110
RWRMAF
MIDLAND AREA WEATHER ROUNDUP
NATIONAL WEATHER SERVICE MIDLAND TX
400 PM CDT THU SEP 03 2015

...IN SOUTHWEST TEXAS AND SOUTHEAST NEW MEXICO...

CITY           SKY/WX    TMP DP  RH WIND       PRES   REMARKS
ALPINE         SUNNY     94  37  13 E12       30.07F
ANDREWS        FAIR      93  53  25 SE14G22   29.96F
ARTESIA        MOSUNNY   95  52  23 E7G15     29.94F
BIG SPRING     SUNNY     91  52  26 E7G16     29.95F
CARLSBAD       MOSUNNY   97  49  19 S9        29.91F
DRYDEN           N/A     97  57  26 VRB7G17   29.89F
FORT STOCKTON  SUNNY     94  46  19 SE13G26   29.93F
GUAD PASS      PTSUNNY   86  50  28 NE18      30.11F
HOBBS          SUNNY     91  48  22 SE15      29.98F
MARFA          MOSUNNY   91  43  18 NE14G20   30.05F
MIDLAND AIRPK  SUNNY     95  48  19 S6        29.95F
MIDLAND INTL   SUNNY     93  52  24 S10G25    29.94F
ODESSA         SUNNY     94  49  21 S13       29.95F
PECOS          SUNNY     98  47  17 E13G20    29.88F
PRESIDIO       FAIR      98  47  17 E10G17    29.88F
SEMINOLE       SUNNY     94  47  19 S10G17    29.97F
SNYDER         SUNNY     93  57  30 SE10      29.94F
WINK           SUNNY     97  45  16 SE21G28   29.91F
$$
...OTHER STATIONS IN TEXAS...

CITY           SKY/WX    TMP DP  RH WIND       PRES   REMARKS
ABILENE        MOSUNNY   92  59  33 E9G24     29.91F
AMARILLO       MOSUNNY   92  55  28 S17G25    29.95F
AUSTIN         PTSUNNY   90  65  43 E6        29.87F
BROWNSVILLE    MOSUNNY   91  73  55 SE10G20   29.83F
CORPUS CHRISTI LGT RAIN  86  75  70 S13       29.85F
DALLAS FTW     MOSUNNY   95  62  33 SE8G17    29.89F
DEL RIO        SUNNY     98  61  29 E8        29.83F
EL PASO        PTSUNNY   90  49  24 W16       29.99F
HOUSTON INT    MOSUNNY   88  72  58 SE13      29.88F
LUBBOCK        MOSUNNY   93  53  25 S13G18    29.96F
SAN ANGELO     PTSUNNY   96  58  27 E5        29.89F
SAN ANTONIO    MOSUNNY   93  65  39 CALM      29.88F
WACO           MOSUNNY   95  64  35 SE9G18    29.89F
WICHITA FALLS  NOT AVBL
$$
...OTHER LOCATIONS IN NEW MEXICO...

CITY           SKY/WX    TMP DP  RH WIND       PRES   REMARKS
ALAMAGORDO     MOSUNNY   86  45  23 NW6       30.02F
ALBUQUERQUE    MOSUNNY   85  46  25 VRB3      30.07F
CANNON AFB     SUNNY     93  47  20 W10G18    29.98F
CLOVIS         MOSUNNY   91  48  22 S10       29.99F
HOLLOMAN AFB   MOSUNNY   90  47  22 W8        29.99F
ROSWELL        MOSUNNY   97  47  18 S8        29.93F
RUIDOSO        PTSUNNY   77  45  31 S9G20     30.21F
SANTA FE       MOSUNNY   83  39  21 W15G23    30.10F
TRUTH OR CONSE FAIR      86  47  25 SW7       30.04F
TUCUMCARI      MOSUNNY   95  46  18 SW17G23   29.93F
$$

USA.gov is the U.S. government's official web portal to all federal, state and local government web resources and services.